Location: Beulah
(33.1426°N, 83.0557°W)
Time: 04:09:31
(UTC+00:00)

Envisat - Pass Details

Date: 05 December 2021
Orbit: 764 x 766 km, 98.2° (Epoch: 23 January)

Event Time Altitude Azimuth Distance (km) Brightness Sun altitude
Rises 09:58:42 0° 20° (NNE) 3,236 6.4 -29.1°
Reaches altitude 10° 10:01:08 10° 27° (NNE) 2,305 5.6 -28.6°
Maximum altitude 10:05:58 44° 99° (E) 1,053 4.1 -27.6°
Drops below altitude 10° 10:10:46 10° 171° (S) 2,291 5.7 -26.6°
Sets 10:13:09 0° 178° (S) 3,213 6.4 -26.1°
